Home   Weather   Lord Howe Island   Past weeks

Flag for Australia Past Weather in Lord Howe Island, Lord Howe Island, Australia — Yesterday and Last 2 Weeks

Now
68 °F

Overcast.


Feels Like: 68 °F
Forecast: 66 / 68 °F
Wind: 10 mph from Southeast

Location: Lord Howe Island

Current Time: Apr 30, 2017 at 7:38:27 pm

Latest Report: Apr 30, 2017 at 6:00 pm


Visibility: N/A

Pressure: 30.09 "Hg

Humidity: 63%

Dew Point: 55 °F

Location of Lord Howe IslandLocation

Past Weather in Lord Howe Island — Graph

°F

Lord Howe Island Temperature Yesterday

Maximum temperature yesterday: 71 °F (at 12:00 pm)
Minimum temperature yesterday: 66 °F (at 9:00 pm)
Average temperature yesterday: 67 °F

High & Low Weather Summary for the Past Weeks

 TemperatureHumidityPressure
High76 °F (Apr 26, 12:00 pm)93% (Apr 27, 1:30 am)30.38 "Hg (Apr 27, 1:30 am)
Low62 °F (Apr 17, 3:00 am)52% (Apr 21, 7:30 pm)29.75 "Hg (Apr 27, 4:30 am)
Average68 °F69%30.12 "Hg
* Reported Apr 15 6:00 pm — Apr 30 6:00 pm, Lord Howe Island, Weather by CustomWeather, © 2017

Note: Actual official high and low records may vary slightly from our data, if they occured in-between our weather recording intervals... More about our weather records

Advertising

Lord Howe Island Weather History for the Previous 24 Hours

Scroll right to see more
 ConditionsComfort  
Time TempWeatherWind HumidityBarometerVisibility
6:00 pm
Sun, Apr 30
68 °FOvercast.10 mph63%30.09 "HgN/A
4:30 pm69 °FMild.8 mph66%30.05 "HgN/A
3:00 pm70 °FOvercast.12 mph64%30.04 "HgN/A
1:30 pm71 °FMild.15 mph64%30.03 "HgN/A
12:00 pm71 °FScattered clouds.13 mph64%30.03 "HgN/A
10:30 am71 °FMild.9 mph59%30.05 "HgN/A
9:00 am71 °FPartly sunny.8 mph61%30.04 "HgN/A
7:30 am69 °FMild.9 mph65%30.02 "HgN/A
6:00 am68 °FPassing clouds.7 mph67%29.99 "Hg11 mi
4:30 am67 °FMild.12 mph85%29.98 "HgN/A
3:00 am69 °FMild.13 mph76%29.97 "HgN/A
1:30 am69 °FMild.13 mph72%29.98 "HgN/A
12:00 am69 °FPassing clouds.12 mph73%30.00 "HgN/A
10:30 pm
Sat, Apr 29
67 °FMild.12 mph83%30.01 "HgN/A
9:00 pm66 °FPassing clouds.5 mph73%30.01 "HgN/A
7:30 pm66 °FMild.6 mph67%30.00 "HgN/A
Weather by CustomWeather, © 2017

See weather overviewHow to use our weather pages